Winner, SD

10:48 PM CST on November 24, 2017 (GMT -0600)
Winner

Weather History for KICR - October, 2012

Change the Weather History Date:

Friday, October 12, 2012

  Actual Average Record
Temperature  
Mean Temperature 47 °F 52 °F  
Max Temperature 63 °F 64 °F 71 °F (2014)
Min Temperature 31 °F 40 °F 31 °F (2012)
Degree Days  
Heating Degree Days 18 13  
Month to date heating degree days 202 133  
Since 1 July heating degree days 260 275  
Cooling Degree Days 0 0  
Month to date cooling degree days 0 9  
Year to date cooling degree days 1468 915  
Moisture  
Dew Point 28 °F    
Average Humidity 48    
Maximum Humidity 72    
Minimum Humidity 23    
Precipitation  
Precipitation 0.00 in 0.05 in 1.20 in (2008)
Month to date precipitation 0.01 0.70  
Year to date precipitation 10.12 19.69  
Sea Level Pressure  
Sea Level Pressure 30.09 in    
Wind  
Wind Speed 18 mph (SSE)    
Max Wind Speed 33 mph    
Max Gust Speed 40 mph    
Visibility 10 miles    
Events      
T = Trace of Precipitation, MM = Missing Value Source: NWS Daily Summary

Daily Weather History Graph

Daily Weather History Graph

Search for Another Location

Airport or City:

Trip Planner

Search our weather history database for the weather conditions in past years. The results will help you decide how hot, cold, wet, or windy it might be!

Date:

Astronomy

Oct. 12, 2012 Rise Set
Actual Time 7:50 AM CDT 7:00 PM CDT
Civil Twilight 7:21 AM CDT 7:29 PM CDT
Nautical Twilight 6:48 AM CDT 8:02 PM CDT
Astronomical Twilight 6:15 AM CDT 8:35 PM CDT
Moon 4:30 AM CDT (10/12) 5:14 PM CDT (10/12)
Length of Visible Light 12h 07m
Length of Day
11h 10m
Waning Crescent, 10% of the Moon is Illuminated
Oct 12
Waning Crescent
Oct 15
New
Oct 21
First Quarter
Oct 29
Full
Nov 6
Last Quarter

Hourly Weather History & Observations

Time (CDT) Temp. Windchill Dew Point Humidity Pressure Visibility Wind Dir Wind Speed Gust Speed Precip Events Conditions
12:53 AM 33.1 °F 26.1 °F 25.0 °F 72% 30.42 in 10.0 mi SSE 8.1 mph - N/A   Clear
1:53 AM 32.0 °F 23.6 °F 24.1 °F 73% 30.40 in 10.0 mi SE 10.4 mph - N/A   Clear
3:53 AM 32.0 °F 23.6 °F 24.1 °F 73% 30.36 in 10.0 mi SE 10.4 mph - N/A   Clear
4:53 AM 32.0 °F 23.6 °F 24.1 °F 73% 30.35 in 10.0 mi SE 10.4 mph - N/A   Clear
5:53 AM 33.1 °F 23.4 °F 24.1 °F 70% 30.34 in 10.0 mi South 13.8 mph - N/A   Clear
6:53 AM 32.0 °F 23.6 °F 23.0 °F 69% 30.32 in 10.0 mi SSE 10.4 mph - N/A   Clear
7:53 AM 30.9 °F 24.3 °F 21.9 °F 69% 30.31 in 10.0 mi SSE 6.9 mph - N/A   Clear
8:53 AM 35.1 °F 25.2 °F 21.9 °F 59% 30.30 in 10.0 mi SSE 16.1 mph 21.9 mph N/A   Clear
9:53 AM 39.9 °F 30.5 °F 21.0 °F 47% 30.28 in 10.0 mi South 19.6 mph 31.1 mph N/A   Clear
11:53 AM 48.9 °F - 18.0 °F 29% 30.21 in 10.0 mi South 21.9 mph 29.9 mph N/A   Clear
12:53 PM 54.0 °F - 19.0 °F 25% 30.14 in 10.0 mi SSE 25.3 mph 34.5 mph N/A   Clear
1:53 PM 57.9 °F - 21.9 °F 25% 30.08 in 10.0 mi South 26.5 mph 32.2 mph N/A   Clear
2:53 PM 60.1 °F - 23.0 °F 24% 30.02 in 10.0 mi SSE 25.3 mph 32.2 mph N/A   Clear
3:53 PM 62.1 °F - 30.9 °F 31% 29.98 in 10.0 mi SSE 29.9 mph 38.0 mph N/A   Clear
5:53 PM 54.0 °F - 33.1 °F 45% 29.93 in 10.0 mi SSE 17.3 mph 26.5 mph N/A   Clear
6:53 PM 51.1 °F - 32.0 °F 48% 29.91 in 10.0 mi South 15.0 mph 24.2 mph N/A   Clear
7:11 PM 51.8 °F - 32.0 °F 47% 29.87 in 10.0 mi South 17.3 mph 21.9 mph N/A   Mostly Cloudy
7:53 PM 50.0 °F - 34.0 °F 54% 29.88 in 10.0 mi South 16.1 mph 31.1 mph N/A   Overcast
8:22 PM 50.0 °F - 33.8 °F 54% 29.86 in 10.0 mi South 18.4 mph 28.8 mph N/A   Scattered Clouds
9:05 PM 48.2 °F - 33.8 °F 58% 29.85 in 10.0 mi South 20.7 mph 26.5 mph N/A   Mostly Cloudy
9:46 PM 50.0 °F - 35.6 °F 58% 29.84 in 10.0 mi South 20.7 mph 28.8 mph N/A   Partly Cloudy
9:53 PM 48.9 °F - 35.1 °F 59% 29.87 in 10.0 mi South 15.0 mph 28.8 mph N/A   Partly Cloudy
10:53 PM 50.0 °F - 36.0 °F 59% 29.86 in 10.0 mi South 21.9 mph 32.2 mph N/A   Clear
11:53 PM 50.0 °F - 36.0 °F 59% 29.81 in 10.0 mi SSW 23.0 mph 32.2 mph N/A   Clear